Weather in Sinyavka

Russia / Lipetsk Oblast     52°25′27″N   40°00′13″E
temp.,
°C
wind,
m/s
gust,
m/s
humid.,
%
clouds,
%
prec.,
mm/h
press.,
hPa
HPBL,
m
22 april, thu
thu2200:00+5ssw379227 0.1 1016158
03:00+4sw499595 0.3 1017237
06:00+4sw36935 0.0 1018158
09:00+8sw46755 0.0 1020576
12:00+13sw565481 0.1 10201762
15:00+14ssw4655100 0.1 10191459
18:00+12s376898 0.0 1019185
21:00+10s477076 0.0 1020109
23 april, fri
fri2300:00+10s387287 0.0 1020162
03:00+9s3376100 0.0 102046
06:00+9s378130 0.0 1020146
09:00+13s576172 0.0 1020522
12:00+16s5744100 0.0 10182292
15:00+16s564690 0.1 10171774
18:00+14sse58645 0.5 1015334
21:00+10se511816 0.6 1015229
24 april, sat
sat2400:00+9se6148677 0.1 1012353
03:00+9s61286100 0.1 1010364
06:00+6wnw5891100 0.8 1010485
09:00+7wnw6773100 0.8 10111047
12:00+9w676462 0.2 10111413
15:00+10w6754100 0.9 10101663
18:00+9wsw575994 1.3 1010966
21:00+5w71180100 1.8 1011357
25 april, sun
sun2500:00+4wsw61082100 0.0 1012805
03:00+3w7138214 0.1 1013659
06:00+2w612835 0.0 1015540
09:00+6w711645 0.0 10161252
12:00+8w81047100 0.3 10162346
15:00+10wsw71139100 0.3 10162691
18:00+8wsw6105613 0.4 10161549
21:00+6sw366966 0.4 1017155
26 april, mon
mon2600:00+5wnw368291 0.0 1017311
03:00+3ssw349099 0.0 101796
06:00+4s1287100 0.0 1016127
09:00+5wsw3682100 0.4 1016726
12:00+5wsw2591100 0.4 1015650
15:00+7wsw4569100 0.5 10131141
18:00+5sw4579100 1.1 1013738
21:00+3ssw378781 1.1 1012163